Regional Weather Roundup
Issued by NWS Sioux Falls, SD

Home | Current Version | Previous Version | Graphics & Text | Print | Product List | Glossary On
Versions: 1 2 3 4 5 6 7 8 9 10 11 12 13 14 15 16 17 18 19 20 21 22 23 24 25 26 27 28 29 30 31 32 33 34 35 36 37 38 39 40 41 42 43 44 45 46 47 48 49 50
000
ASUS43 KFSD 200902
RWRFSD

WEATHER ROUNDUP FOR SE SOUTH DAKOTA/SW MINNESOTA/NW IOWA
NATIONAL WEATHER SERVICE SIOUX FALLS SD
400 AM CDT SUN APR 20 2014

NOTE: "FAIR" INDICATES FEW OR NO CLOUDS BELOW 12,000 FEET WITH NO
SIGNIFICANT WEATHER AND OR OBSTRUCTIONS TO VISIBILITY.


SDZ038>040-050-052>070-201000-
SOUTHEAST SOUTH DAKOTA

CITY           SKY/WX    TMP DP  RH WIND       PRES   REMARKS
CHAMBERLAIN      N/A     42  27  55 SE5       30.00S
HURON          CLEAR     37  31  78 CALM      30.00R
MADISON        FAIR      36  28  75 N3        30.02R
MITCHELL       CLEAR     39  28  64 CALM      30.02R
SIOUX FALLS    CLOUDY    52  39  61 NE5       30.00R
WINNER         FAIR      45  21  38 S7        30.01R
YANKTON        PTCLDY    54  37  54 N5        30.00R
$$

MNZ071-072-080-081-089-090-097-098-201000-
SOUTHWEST MINNESOTA

CITY           SKY/WX    TMP DP  RH WIND       PRES   REMARKS
FAIRMONT       CLOUDY    54  45  71 CALM      30.03S
JACKSON        MOCLDY    50  43  76 E6        30.01F
LUVERNE        PTCLDY    52  43  71 N3        30.01S
MARSHALL       CLEAR     43  34  70 SW3       30.00F
MONTEVIDEO     CLEAR     39  32  75 W3        30.03R
PIPESTONE      CLOUDY    52  39  62 NE5       30.01R
REDWOOD FALLS  PTCLDY    50  46  86 CALM      30.01R
TRACY          MOCLDY    52  43  70 CALM      30.01S
WINDOM         MOCLDY    50  41  71 NE3       30.02S
WORTHINGTON    MOCLDY    52  39  62 E5        30.03S
$$

IAZ001>003-012>014-020>022-031-032-NEZ013-014-SDZ071-201000-
NORTHWEST IOWA

CITY           SKY/WX    TMP DP  RH WIND       PRES   REMARKS
DENISON        MOCLDY    63  45  51 S12       29.99S
ESTHERVILLE    CLOUDY    53  46  77 N6        30.00F
SIOUX CITY     MOCLDY    59  47  64 SE10      29.97S
SPENCER        MOCLDY    52  43  71 NE6       30.00S
STORM LAKE     CLOUDY    59  45  58 S9        30.01S
$$

ABBREVIATIONS USED IN REMARKS
   TC - TEMPERATURE IN CELSIUS
  WCI - WIND CHILL INDEX
   HX - HEAT INDEX
  VSB - VISIBILITY




USA.gov is the U.S. government's official web portal to all federal, state and local government web resources and services.